Regional Weather Roundup
Issued by NWS New Orleans/Baton Rouge, LA

Home | Current Version | Previous Version | Text Only | Print | Product List | Glossary On
Versions: 1 2 3 4 5 6 7 8 9 10 11 12 13 14 15 16 17 18 19 20 21 22 23 24 25 26 27 28 29 30 31 32 33 34 35 36 37 38 39 40 41 42 43 44 45 46 47 48 49 50
570
ASUS44 KLIX 181301
RWRLIX
NEW ORLEANS REGIONAL WEATHER ROUNDUP
NATIONAL WEATHER SERVICE NEW ORLEANS LA
800 AM CDT FRI APR 18 2014

NOTE: "FAIR" INDICATES FEW OR NO CLOUDS BELOW 12,000 FEET WITH NO
      SIGNIFICANT WEATHER AND/OR OBSTRUCTIONS TO VISIBILITY.
      SKY/WX - SKY CONDITION AND SIGNIFICANT WEATHER.
      TMP - AIR TEMPERATURE.     DP    - DEWPOINT TEMPERATURE.
      RH  - RELATIVE HUMIDITY.   PRES  - PRESSURE.
      HI  - HEAT INDEX.          WCI   - WIND CHILL INDEX.

*  THESE STATIONS ARE NOT NWS OR FAA STATIONS AND ARE NOT UNDER
   NWS QUALITY CONTROL.

LAZ038-040-048-061>063-065>067-069-181400-
SOUTHEAST LOUISIANA

CITY           SKY/WX    TMP DP  RH WIND       PRES   REMARKS
N.O. AUDUBON   NOT AVBL
N.O. INTL ARPT CLOUDY    62  60  93 N10       30.11R
N.O. LAKEFRONT CLOUDY    62  60  93 N17       30.11R
N.O. DOWNTOWN* CLOUDY    61  57  88 N7        30.11R
SLIDELL        CLOUDY    62  59  90 N6        30.10R
BATON ROUGE    CLOUDY    63  56  78 N5        30.14R
BOOTHVILLE     LGT RAIN  62  61  96 N8G16     30.05R FOG
BELLE CHASSE   DRIZZLE   62  59  90 N9        30.09R FOG
BOGALUSA*        N/A     62  58  87 N5        30.14R
GALLIANO*      NOT AVBL
NEW ROADS*     NOT AVBL
GONZALES*      CLOUDY    61  58  89 N3        30.12F
HAMMOND*       NOT AVBL
HOUMA*         CLOUDY    63  59  88 N12       30.11R FOG
PORT FOURCHON* FOG       63  61  94 N13       30.09R VSB 3/4

$$

MSZ070-080>082-181400-
SOUTHERN MISSISSIPPI

CITY           SKY/WX    TMP DP  RH WIND       PRES   REMARKS
MCCOMB         CLOUDY    60  56  86 N5        30.16R
GULFPORT       LGT RAIN  63  58  83 N12       30.07S
BILOXI         NOT AVBL
PASCAGOULA     LGT RAIN  60  59  96 N12       30.07S FOG
STENNIS ARPT*  LGT RAIN  55  54  94 N12G17    30.09R VSB 1

$$

COASTAL OBSERVATIONS
LAKE AND NEARSHORE STATIONS

STATION/POSITION TIME  TEMP    WIND        PRES    WAVE
                       AIR SEA DIR/SP/G            HT/PER
                 (UTC) (F)     (DEG/KT/KT) (MB)    (FT/S)
PASCAGOULA       1200   61      30/ 13/ 19 1017.2
WAVELAND YACHT   1200   61 65   10/ 13/ 15 1017.8
GRAND ISLE       1200   63 66   20/ 16/ 20 1018.2
SOUTHWEST PASS   1200   64 58  360/ 15/ 17 1016.9
NEW CANAL        1200   62 63  360/ 12/ 13 1019.5
SHELL BEACH      1200   62 61   10/ 18/ 22 1018.1

OFFSHORE STATIONS

STATION/POSITION TIME  TEMP    WIND        PRES    WAVE
                       AIR SEA DIR/SP/G            HT/PER
                 (UTC) (F)     (DEG/KT/KT) (MB)    (FT/S)
64 S DAUPHIN ISL 1155   65 71   30/ 25/ 31 1014.5

$$




USA.gov is the U.S. government's official web portal to all federal, state and local government web resources and services.